View from above orbital plane
|
View from above satellite
|
Ground track
|
The orbit data is extracted from the following two-line orbital elements,
1 31702U 07027B 21047.76235138 0.00000384 00000-0 68534-4 0 06
2 31702 63.3482 270.7365 0440883 17.7100 342.2900 14.18884511 05
Epoch (UTC): | 16 February 2021 18:17:47 |
Eccentricity: | 0.0440883 |
inclination: | 63.3482° |
perigee height: | 511 km |
apogee height: | 1147 km |
right ascension of ascending node: | 270.7365° |
argument of perigee: | 17.7100° |
revolutions per day: | 14.18884511 |
mean anomaly at epoch: | 342.2900° |
orbit number at epoch: | 0 |
The dashed part of the orbit path shows where the satellite is in the earth's shadow,
|
|